AO-16 (20439 NORAD) Tracking and Keplerian Element Data

This shows tracking and keplerian element data for the satellite.

Feedback or suggestion? Click here.




ElementValue
Catalog20439
NameAO-16
Epoch Orbit79623
Epoch Day159.79268081
Epoch Year2024
RAAN164.6549
Inclination98.8992
Eccentricity0.0009733
Argument of Perigee236.0866
Mean Anonmoly299.5939
Mean Motion14.33385571
Decay Rate3.65E-06
L11 20439U 90005D 24159.79268081 .00000365 00000-0 14911-3 0 9997
L22 20439 98.8992 164.6549 0009733 236.0866 299.5939 14.33385571796236



Live tracking and technical data element details for AO-16 (NORAD 20439). AO-16 can be tracked NOW for your location showing map with azimuth and elevation plus other details from your city location.







IsCatalogInMostPopularTable: catalog: 20439, numindb: 23
Update: records affected: 1



GetName: 20439 AO-16

Hit Count: updated at: Fri, 24 Jan 2025 22:18:07 GMT